Wind_Speed
11 15 11 4 4 4 3 4 1 8 9 4 11 4 3 5 2 3 9 11 16 18 17 16 15 15 12 12 12 12 14 14 14 14 13 13 13 14 12 12 13 13 13 13 13 13 13 13 12
14 12 3 2 5 6 4 4 9 10 9 11 9 5 4 4 3 8 13 10 18 18 16 16 16 14 14 12 12 13 14 14 13 13 14 14 13 12 12 11 11 11 12 12 12 12 12 12 12
11 5 3 3 4 8 2 6 8 7 12 9 7 1 1 5 6 16 10 17 18 16 13 17 18 15 13 11 12 14 16 13 12 13 14 14 13 12 12 11 11 11 10 11 11 11 11 11 11
4 5 3 5 9 5 2 5 9 14 4 6 4 7 5 2 16 10 17 20 19 16 15 18 18 15 12 11 12 15 13 11 12 12 13 13 12 12 11 11 8 8 10 9 9 9 9 10 10
5 3 5 5 9 2 3 4 15 14 10 9 6 6 4 8 8 14 21 20 20 18 17 17 16 13 12 12 12 14 12 11 11 11 11 11 11 10 10 9 8 8 7 7 7 7 8 8 8
5 3 6 11 10 4 2 9 13 10 9 9 6 10 6 5 12 18 21 20 19 19 17 15 14 12 12 12 11 12 12 9 8 7 8 9 9 9 8 7 7 6 6 5 6 7 7 7 8
9 6 11 9 12 4 5 12 14 12 10 9 9 10 5 9 14 19 20 19 18 17 16 15 13 12 12 13 11 10 10 9 9 8 6 7 8 8 7 7 7 7 7 7 7 7 7 7 8
7 4 8 8 10 10 9 14 8 11 10 6 7 6 7 16 19 19 19 18 17 17 16 15 13 13 12 14 11 9 9 8 7 7 7 5 5 6 6 7 7 8 8 8 7 7 7 7 7
3 8 11 13 8 6 12 12 6 3 10 5 7 3 6 25 22 20 20 18 17 17 16 15 14 14 12 12 11 9 8 8 7 6 5 4 3 3 5 6 6 7 7 8 8 9 9 9 9
9 11 13 5 7 7 16 15 14 9 11 6 9 5 20 25 24 23 21 21 19 19 17 15 15 14 13 11 10 8 8 6 5 4 4 3 3 4 4 5 6 6 7 7 8 10 12 10 6
7 14 10 3 6 4 16 13 11 9 11 12 16 15 21 25 22 21 20 20 20 19 17 16 16 15 14 11 10 8 7 6 5 4 4 3 3 2 3 4 5 5 8 6 7 9 10 12 11
9 11 5 3 3 7 15 12 9 15 2 7 13 21 25 22 23 23 22 21 20 19 18 17 16 15 13 10 9 8 6 6 6 5 4 2 1 2 3 4 5 6 8 8 8 9 9 8 9
6 5 7 3 4 4 9 16 14 16 2 8 18 22 21 22 23 21 19 18 19 19 19 19 17 15 13 11 9 8 8 6 5 3 3 2 2 1 2 3 5 6 8 7 7 8 7 7 9
16 9 6 4 5 4 13 9 6 13 7 14 19 20 20 21 24 20 20 19 20 19 20 19 18 16 14 12 10 9 8 6 4 3 3 3 2 1 2 3 5 5 6 5 5 5 4 5 7
3 11 5 5 6 5 9 5 14 9 12 15 16 18 19 21 24 24 23 22 21 20 20 20 19 17 15 12 10 9 8 7 5 5 5 5 3 2 2 4 9 8 5 4 3 4 6 8 10
4 6 14 5 8 4 10 17 18 10 14 15 15 16 18 20 24 23 22 20 20 19 20 20 18 18 16 14 12 10 8 7 7 7 7 6 4 3 3 6 4 4 3 2 4 5 6 7 7
5 14 19 7 4 4 12 14 15 12 14 15 14 15 16 17 20 22 21 21 21 20 20 19 19 19 18 15 13 11 11 9 9 8 8 6 4 4 3 2 2 2 3 4 5 6 6 7 7
22 20 9 14 8 4 15 8 9 12 14 16 16 15 16 17 20 23 22 21 20 20 19 19 19 19 19 18 16 14 12 11 11 10 8 6 6 4 1 1 3 4 3 4 5 8 8 7 6
14 18 16 17 6 5 14 15 9 12 12 14 15 16 16 18 18 19 20 21 20 20 21 22 22 22 22 21 16 12 13 12 12 10 9 7 5 3 4 5 5 4 4 5 6 7 7 6 4
15 26 16 5 4 4 4 13 5 12 12 17 18 17 18 16 15 18 21 21 23 23 24 24 24 23 24 21 18 17 20 12 11 11 9 8 7 6 7 6 5 5 4 5 6 6 6 4 1
15 21 19 17 8 3 2 12 11 8 10 10 13 15 16 18 17 16 21 24 23 25 26 26 26 25 26 21 21 19 17 13 14 12 10 9 9 9 8 7 7 6 6 5 5 6 4 4 2
9 9 17 16 17 11 3 11 21 20 15 15 17 16 18 18 16 16 21 23 26 27 24 24 24 25 25 25 24 26 17 14 13 15 13 12 10 9 9 8 7 7 7 6 6 6 6 5 5
4 7 8 6 5 6 6 7 18 13 21 19 18 19 18 18 17 18 22 25 24 21 21 21 22 23 24 27 23 23 20 18 15 15 14 14 13 12 10 10 9 8 8 8 8 8 7 6 5
8 15 10 7 4 4 15 16 18 13 16 21 19 20 19 18 17 16 19 18 18 17 19 20 21 23 23 24 22 22 26 22 19 17 16 15 13 13 12 11 10 9 9 9 9 9 8 8 7
3 19 4 3 4 7 10 10 17 6 14 15 22 22 21 16 15 14 14 16 15 16 17 18 21 21 21 22 21 24 26 21 18 20 17 17 16 15 15 13 12 11 10 11 10 9 8 7 6
16 12 7 8 7 6 2 12 10 18 11 8 5 8 11 12 11 12 13 15 15 16 17 17 19 19 21 21 22 25 23 19 19 17 17 18 16 17 17 14 12 13 11 10 10 9 8 8 6
6 9 4 5 2 3 7 6 9 7 9 10 10 6 9 10 9 9 10 13 15 16 16 17 18 18 19 18 22 23 21 20 17 18 18 18 18 18 17 15 14 13 12 11 10 8 7 7 6
9 10 3 2 7 7 4 9 8 6 12 10 10 14 9 6 7 7 9 13 15 16 15 15 15 16 16 18 19 20 20 20 19 19 20 21 21 20 19 17 16 14 13 11 10 10 8 6 6
6 6 2 3 0 3 3 4 8 14 6 12 13 9 10 9 9 8 9 13 14 14 14 15 16 17 17 18 19 19 20 20 20 19 21 22 22 22 20 19 17 16 15 13 11 9 9 8 7
7 10 9 7 7 2 2 3 1 1 2 2 3 7 8 9 9 9 12 16 16 16 15 16 15 18 19 19 19 20 20 20 21 21 22 23 22 21 20 19 18 17 15 14 13 11 10 10 8
Wind_Direction
164 161 160 203 219 237 229 192 145 149 156 126 148 210 180 32 351 40 138 139 145 148 153 148 154 154 140 128 116 109 103 101 95 90 90 92 97 91 94 85 89 81 80 70 62 62 60 56 52
153 161 192 247 241 219 205 166 187 157 129 136 131 135 166 93 67 119 136 146 147 147 151 159 155 154 143 130 120 114 112 110 98 95 94 95 98 105 96 91 94 83 83 64 64 62 59 54 49
162 217 241 227 225 228 226 190 166 130 141 157 142 13 93 109 120 144 133 147 147 147 147 161 163 158 144 133 123 121 121 119 100 99 95 96 102 101 96 102 100 91 65 64 61 56 52 48 47
212 213 220 239 213 220 239 174 160 147 160 175 166 132 112 353 147 155 149 148 148 149 144 151 155 155 147 136 127 124 121 115 106 100 96 94 94 97 100 99 94 67 69 65 58 55 51 51 46
234 250 224 227 222 205 208 188 166 168 155 158 166 141 98 139 143 144 149 152 153 151 150 152 156 156 150 141 132 132 131 113 105 104 101 96 93 91 90 87 80 72 65 58 49 46 49 46 39
212 266 222 215 212 198 205 175 167 174 157 146 156 139 132 143 156 153 154 155 157 154 151 155 158 158 153 147 140 141 128 123 130 98 101 97 93 92 92 85 74 63 59 54 48 48 48 51 40
245 223 229 231 208 204 193 169 177 169 160 174 138 152 119 160 160 156 155 156 158 159 152 156 160 163 163 162 152 147 144 150 145 145 140 102 97 97 85 76 70 62 54 51 46 46 46 40 32
241 248 231 219 205 214 158 170 188 176 169 115 168 176 172 174 161 159 157 157 159 162 159 161 163 160 156 166 164 162 165 158 153 151 151 120 103 93 75 66 58 53 50 43 38 25 12 7 5
229 227 228 219 192 187 160 176 170 133 145 170 168 169 141 155 157 156 161 161 162 166 169 170 168 165 162 155 170 167 165 165 157 148 152 123 104 81 68 61 46 36 31 21 14 8 360 354 0
216 226 221 236 203 190 179 187 159 170 161 175 169 116 142 151 162 164 166 168 170 170 173 173 169 166 165 165 167 168 169 170 168 159 154 126 100 96 75 39 22 13 8 2 8 13 12 7 351
204 227 222 239 224 211 179 186 168 173 192 195 187 153 158 160 168 172 178 176 175 173 172 173 171 170 168 169 169 171 173 167 166 153 148 130 104 64 35 13 8 5 360 1 7 6 6 8 14
213 224 214 192 190 172 179 164 186 192 143 200 174 158 161 168 175 180 182 177 178 177 177 176 176 174 174 171 173 177 173 168 158 161 155 147 106 36 19 7 1 -0 356 344 345 346 358 8 20
234 198 202 176 191 205 160 190 188 199 106 150 143 155 171 175 178 184 185 182 180 181 181 182 180 179 178 175 175 170 166 162 166 176 203 236 255 317 346 340 341 343 340 336 337 341 359 26 37
196 183 179 172 162 199 187 185 196 193 147 148 157 165 176 182 183 181 186 188 187 185 186 184 184 182 181 179 175 171 171 172 174 188 221 247 228 258 317 336 339 340 342 348 351 9 12 45 61
187 165 158 173 166 182 185 176 219 163 166 160 172 171 174 187 189 192 189 190 189 187 185 186 186 186 185 184 180 181 187 190 197 221 242 247 252 285 307 310 317 320 336 355 34 60 83 86 73
179 212 200 155 167 174 203 210 208 178 173 173 176 179 181 190 196 197 195 193 190 186 188 186 187 188 188 188 185 190 194 201 219 227 229 236 241 254 278 307 325 338 0 49 84 101 102 97 101
250 196 207 166 194 176 197 220 177 181 198 180 184 187 188 189 199 198 196 195 192 191 188 189 190 190 189 188 187 193 201 206 214 215 214 218 232 260 281 299 357 75 87 98 113 121 135 127 118
194 207 190 191 168 206 199 227 185 181 199 197 190 191 192 197 201 198 197 198 196 196 195 192 192 190 186 189 193 200 203 202 199 198 210 229 234 234 234 125 127 129 129 128 130 145 142 139 125
212 193 199 212 105 190 213 220 208 189 202 203 204 197 198 206 198 197 198 200 198 201 198 196 194 191 187 190 184 187 196 195 198 193 198 217 220 187 154 164 155 146 153 149 146 136 133 128 139
194 188 197 55 79 182 216 232 229 198 215 207 205 206 206 203 196 198 196 198 202 202 204 201 200 195 195 196 199 201 198 191 192 198 199 202 193 178 169 171 166 162 150 135 156 158 149 142 146
204 189 173 199 173 58 306 241 227 226 220 214 227 224 217 210 204 200 196 201 205 207 207 203 202 200 200 194 198 191 190 184 189 195 196 190 183 179 170 171 164 154 139 132 138 160 164 159 129
190 226 168 142 162 202 218 243 218 214 213 211 220 215 218 212 215 208 203 203 207 210 210 207 205 202 200 196 199 199 189 183 201 192 192 182 183 179 171 168 158 150 137 130 128 134 144 144 150
188 138 131 110 113 79 212 242 229 206 221 212 219 220 220 216 208 209 207 210 211 208 206 207 203 202 199 202 199 193 195 195 190 181 184 180 182 179 171 165 155 146 139 133 124 121 124 120 124
155 118 71 45 45 223 196 215 228 206 214 216 219 221 220 214 209 210 210 209 209 208 208 205 202 203 201 199 197 196 199 188 183 179 183 176 181 176 168 167 157 151 144 131 121 115 116 121 116
213 133 122 134 188 233 207 207 231 190 217 217 216 214 215 208 206 204 202 201 202 200 200 200 199 199 197 195 193 198 199 193 194 186 182 178 182 177 172 169 163 151 143 138 137 130 128 122 128
187 165 161 178 199 183 119 230 227 230 217 209 239 244 219 200 202 207 208 200 195 196 191 193 190 190 188 188 191 195 196 196 193 189 186 185 183 182 177 169 163 153 153 148 144 147 145 144 139
180 208 62 93 34 190 196 244 263 218 216 215 217 219 215 199 190 196 197 196 190 188 184 183 179 180 180 182 187 189 193 193 190 191 187 187 185 181 175 172 168 161 163 165 161 158 160 152 153
196 150 143 181 160 213 189 242 223 191 222 212 211 220 211 192 182 181 185 181 182 178 171 170 173 174 175 181 188 191 193 196 195 192 189 187 185 182 177 174 173 172 175 175 174 175 171 174 172
162 180 212 106 344 238 180 231 201 209 214 207 207 208 200 198 185 176 176 180 173 165 167 169 171 172 176 182 186 189 192 193 193 191 189 188 187 183 179 181 180 182 184 185 185 189 184 188 197
208 183 179 196 183 234 312 240 104 293 9 59 166 193 198 195 186 172 171 170 170 170 172 174 174 180 185 188 190 191 192 192 191 189 190 189 186 184 185 187 187 191 193 193 195 195 205 203 203
Height
815 819 819 817 822 815 818 815 804 813 815 811 811 815 814 818 821 831 837 839 842 846 849 852 854 854 855 857 858 859 860 860 861 861 861 862 862 862 863 862 862 862 862 861 860 859 858 857 856
818 820 819 812 819 821 813 805 811 805 805 812 816 818 817 823 829 834 838 841 844 847 850 853 854 856 857 858 859 860 861 862 862 863 863 863 864 864 864 864 864 864 863 862 861 860 859 859 858
820 820 814 812 812 815 811 806 801 811 811 810 816 818 819 826 831 834 837 841 845 848 851 853 855 858 859 860 860 861 863 864 864 865 865 865 865 865 865 865 865 865 864 864 863 862 862 861 860
822 819 814 815 813 803 802 801 803 814 815 813 810 819 824 830 832 834 838 842 846 849 852 854 856 859 860 861 862 864 865 865 866 867 867 867 867 866 866 866 867 866 865 865 864 863 862 862 861
821 814 816 817 808 804 801 800 801 808 808 811 813 823 827 832 833 835 838 842 846 849 853 855 858 860 861 863 864 866 866 868 868 868 869 868 868 868 868 868 867 867 866 865 865 864 864 863 862
816 812 816 815 807 804 803 801 801 804 807 814 815 818 827 832 834 836 839 843 847 850 853 856 859 861 862 864 865 866 868 869 869 869 869 869 869 869 868 868 868 867 867 866 865 865 864 863 863
813 812 809 804 802 805 800 801 803 804 808 812 810 819 828 833 834 837 840 844 847 850 853 857 859 861 863 865 866 868 869 869 870 870 870 870 870 870 870 869 868 868 867 867 866 866 865 864 863
807 806 809 803 804 801 799 802 800 802 806 811 811 816 827 828 834 838 841 844 848 851 853 857 860 861 864 865 867 868 869 870 870 871 871 871 871 871 871 871 870 869 869 868 867 866 866 865 864
808 809 807 799 802 794 799 801 803 805 806 809 812 811 815 825 832 837 841 844 847 851 853 856 859 861 864 865 867 868 869 870 870 871 872 872 873 873 873 872 871 870 870 869 868 867 866 865 864
804 805 800 790 786 789 794 791 800 803 808 809 812 817 819 826 831 835 838 841 845 849 852 855 858 860 863 865 866 868 869 871 872 872 873 873 874 873 873 872 872 871 870 869 869 868 867 866 865
799 800 793 790 788 787 791 794 795 797 808 798 802 814 821 826 831 835 838 840 843 847 851 854 857 859 861 864 865 868 869 870 871 872 873 873 874 874 874 873 873 872 871 870 870 869 868 866 865
802 792 793 791 792 792 792 789 796 792 790 790 796 809 818 823 827 831 835 838 842 846 850 852 855 858 860 863 864 867 868 869 871 872 872 873 874 874 874 873 873 872 871 871 870 870 869 868 866
804 793 793 793 793 791 790 791 789 792 793 795 801 811 817 821 826 831 835 838 841 845 848 851 853 856 859 861 863 865 867 869 871 871 871 872 873 873 873 872 872 871 870 870 870 869 869 868 867
798 792 792 792 792 793 791 793 794 789 795 798 802 808 815 819 824 829 833 837 839 843 846 849 852 855 858 861 863 865 867 868 870 870 870 870 871 871 871 871 871 870 868 868 868 868 869 868 867
795 791 792 791 792 793 790 802 795 785 793 797 801 805 812 817 822 825 829 833 836 839 843 847 850 854 857 860 862 864 866 867 868 868 869 869 869 870 870 869 869 868 867 867 867 868 868 868 869
795 788 792 792 792 795 791 792 784 790 791 795 799 802 807 813 817 822 826 830 834 837 840 844 847 850 854 858 860 862 864 865 865 866 867 867 867 868 867 867 866 866 866 866 867 867 868 868 868
799 794 785 793 792 794 791 781 778 789 789 790 796 800 804 809 815 818 822 827 830 834 838 841 844 847 851 855 857 859 861 862 862 864 864 865 865 865 865 865 864 864 865 865 865 865 865 866 866
779 788 792 784 791 796 792 787 787 791 790 785 791 796 801 804 807 814 819 824 827 831 835 839 842 845 848 850 853 856 858 859 860 861 862 863 863 863 863 864 864 864 864 864 863 864 864 865 868
777 783 784 781 794 795 792 786 786 790 793 787 787 791 795 798 805 811 816 821 824 828 831 834 837 841 844 847 850 854 855 857 858 860 861 862 863 863 863 863 864 863 863 862 863 866 867 867 868
785 773 787 798 800 799 799 792 792 791 786 781 782 786 789 795 802 808 811 815 818 821 825 828 833 836 839 843 846 848 851 855 857 858 859 860 861 862 861 862 863 863 863 863 863 864 866 868 869
781 773 774 786 803 806 802 791 789 785 785 785 786 782 785 788 796 802 805 809 813 815 818 822 826 829 833 839 841 844 848 852 854 855 858 858 860 861 860 862 862 862 863 864 863 864 865 867 868
786 771 772 789 791 805 812 787 767 773 779 782 778 782 781 784 790 795 800 803 806 809 814 817 822 825 829 833 836 838 843 847 850 853 854 856 859 860 860 862 862 862 863 864 863 864 864 865 866
783 773 784 791 805 808 810 807 756 772 772 768 770 771 774 775 781 787 791 795 800 804 808 813 817 820 823 826 831 835 839 843 847 850 854 854 857 858 859 860 861 863 863 863 863 864 865 866 867
779 778 801 813 819 818 791 795 758 762 761 757 758 761 765 770 775 781 786 792 796 799 803 807 811 815 818 823 827 831 835 839 843 846 852 851 856 858 859 860 860 862 863 863 864 865 867 866 866
776 776 810 816 818 792 782 798 751 747 749 746 747 752 756 763 770 775 781 786 791 795 799 803 806 811 815 820 823 827 832 836 840 843 846 849 853 855 857 858 859 859 864 863 863 863 866 867 867
775 762 778 784 790 781 812 782 745 743 744 753 757 754 754 763 768 772 777 782 787 792 795 799 803 807 812 817 820 824 829 834 837 842 842 847 851 853 855 857 860 858 863 863 862 862 861 863 865
787 778 777 786 822 780 768 764 745 750 751 757 755 761 758 760 765 770 777 780 785 790 793 797 801 806 809 813 817 822 828 832 835 838 841 844 847 851 855 856 857 858 860 861 861 863 865 864 863
777 774 784 785 790 775 769 758 740 744 744 747 755 756 756 762 767 770 774 778 784 787 791 795 799 804 808 812 817 821 826 830 833 836 839 842 845 848 851 854 856 857 858 861 860 860 861 865 864
783 783 783 776 784 764 765 742 730 728 729 731 740 751 753 761 763 767 772 779 782 785 789 793 797 801 806 811 815 819 823 827 830 834 838 840 844 846 849 851 853 855 856 857 859 862 860 861 864
770 771 768 761 783 785 784 741 747 744 745 745 747 751 754 759 763 767 771 776 779 783 788 793 796 800 803 807 811 815 820 824 827 832 835 838 843 846 847 849 851 853 855 855 856 856 861 859 860